www.pogodaiklimat.ru

Погода и климат >> Архив погоды >> Россия >> Коми >> Ижма


ПОГОДА в Ижме

  • Прогноз погоды в Ижме
  • Монитор погоды в Ижме

АРХИВ ПОГОДЫ в Ижме

Время (UTC), дата Ветер
(напр.,м/с)
 
Видим.   Явления Облачность Т
(С)
Тd
(С)
f
(%)
Тe
(С)
Тes
(С)
Комфортность P
(гПа)
Po
(гПа)
Тmin
(С)
Tmax
(С)
R
(мм)
R24
(мм)
S
(см)
03 17.02 Ю 3 20 км слаб. снег 10/0
[As op]
-7.4 -8.7 90 -13 -13 988.5 983.5 -8.0 0.9 74
06 17.02 Ю 5 20 км слаб. снег 10/0
[Ac As]
-6.5 -8.3 87 -14 -14 985.4 980.4
09 17.02 ЮВ 6-10
{11}
20 км слаб. снег {метель} 10/0
[Ac As]
-5.5 -8.0 83 -13 -13 982.9 978.0
12 17.02 ЮВ 5-10
{11}
10 км слаб. снег {метель} 10/0
[Ac As]
-6.4 -8.8 83 -14 -14 981.3 976.3
15 17.02 ЮВ 3 10 км слаб. снег {метель} 10/0
[As op]
-7.2 -8.7 89 -13 -13 980.9 975.9 -5.5 1
18 17.02 ЮВ 2 10 км слаб. снег {метель} 10/0
[As op]
-7.1 -8.3 91 -12 -12 980.9 975.9
21 17.02 В 1 20 км слаб. снег 10/0
[As op]
-7.8 -8.9 92 -10 -10 982.1 977.1
00 18.02 С 2 4000 м слаб. снег 10/8 270 м
[Frnb As op]
-9.0 -10.0 92 -14 -14 984.6 979.6
03 18.02 С 4 4000 м слаб. снег 10/4 300 м
[Frnb As op]
-8.9 -10.2 90 -16 -16 988.3 983.2 -9.8 2 76
06 18.02 С 6-12
{13}
10 км слаб. снег {метель} 10/6 400 м
[Sc As op]
-10.1 -11.7 88 -19 -19 992.8 987.7 -10.2
09 18.02 С 5-11
{13}
10 км слаб. снег {метель} 10/0
[As op]
-10.0 -12.8 80 -18 -18 997.6 992.5
12 18.02 С 4
{12}
20 км позёмок {снег} 8/0
[Ac trans Ci fib]
-12.3 -17.1 67 -19 -19 1002.7 997.5
15 18.02 С 2
{11}
20 км {метель} ясно -15.9 -18.7 79 -21 -21 1007.0 1001.7 -8.8 1
18 18.02 штиль 0 20 км {метель} ясно -29.3 -32.2 76 -29 -29 1009.1 1003.5
21 18.02 Ю 2 20 км 1/0
[Ci fib]
-32.3 -35.9 70 -40 -40 опасность
обморожения
1009.6 1003.9
00 19.02 Ю 2 20 км ясно -28.6 -30.6 83 -36 -36 опасность
обморожения
1009.0 1003.4
03 19.02 Ю 2 20 км ясно -30.5 -33.2 77 -38 -38 опасность
обморожения
1008.0 1002.4 -33.0 73
06 19.02 Ю 3 20 км 4/0
[Ci fib]
-22.8 -25.2 81 -31 -30 опасность
обморожения
1006.1 1000.7
09 19.02 Ю 3 20 км 8/0
[Cs]
-15.0 -17.9 78 -22 -21 1003.8 998.5
12 19.02 Ю 4
{10}
20 км 10/0
[Cc]
-13.3 -16.7 76 -21 -21 1001.9 996.7
15 19.02 Ю 5
{12}
20 км позёмок 8/0
[Cc]
-13.5 -16.7 77 -22 -22 1000.7 995.5 -12.6
18 19.02 Ю 5-10
{10}
20 км слаб. снег {метель} 10/0
[As op]
-13.1 -16.1 78 -21 -21 1000.7 995.5
21 19.02 Ю 4
{10}
20 км слаб. снег {метель} 10/6 480 м
[Sc As op]
-13.2 -16.0 79 -21 -21 1000.6 995.4
00 20.02 Ю 3 20 км слаб. снег {метель} 10/6 400 м
[Sc As op]
-13.3 -16.0 80 -20 -20 1000.3 995.1
03 20.02 Ю 3 20 км слаб. снег 10/6 420 м
[Sc As op]
-13.6 -16.1 81 -20 -20 1000.2 995.0 -14.3 0.2 72
06 20.02 Ю 4 20 км слаб. снег 10/5 300 м
[Sc As trans]
-13.5 -16.3 79 -21 -21 999.9 994.7
09 20.02 ЮВ 4 20 км слаб. снег 10/10 1020 м
[Sc]
-11.8 -15.3 75 -19 -19 998.6 993.4
12 20.02 ЮВ 4 20 км {снег, метель} 10/10 450 м
[Sc]
-11.6 -14.7 78 -19 -19 996.6 991.5
15 20.02 ЮВ 4 10 км слаб. снег {метель} 10/4 300 м
[Sc As op]
-12.0 -14.5 82 -19 -19 994.1 988.9 -11.1 0.5
18 20.02 ЮВ 3 10 км слаб. снег 10/0
[As op]
-10.7 -12.5 87 -17 -17 992.3 987.2
21 20.02 ЮВ 4 10 км слаб. снег {метель} 10/0
[As op]
-9.9 -11.5 88 -17 -17 990.6 985.5
00 21.02 ЮВ 3 4000 м слаб. снег {метель} 10/0
[As op]
-9.5 -11.1 88 -15 -15 989.5 984.4
03 21.02 ЮВ 2 20 км слаб. снег 10/0
[As op]
-9.6 -11.1 89 -14 -14 989.7 984.6 -12.0 3 73
06 21.02 В 2 20 км слаб. снег 10/0
[As op]
-9.1 -10.7 88 -14 -14 991.3 986.2
09 21.02 СВ 2 10 км слаб. снег 10/3 300 м
[Frnb As op]
-8.3 -10.3 85 -13 -13 993.5 988.4
12 21.02 С 3 20 км слаб. снег 10/1 300 м
[Frnb As op]
-8.8 -10.6 87 -15 -15 996.9 991.8
15 21.02 С 3 10 км слаб. снег 10/0
[Ac As]
-12.5 -14.8 83 -19 -19 1001.6 996.4 -8.0 1
18 21.02 С 3 20 км слаб. снег 10/0
[As trans]
-16.0 -18.4 82 -23 -23 1005.8 1000.5
21 21.02 С 3 20 км слаб. снег 10/0
[As op]
-14.7 -17.3 81 -21 -21 1009.8 1004.5
00 22.02 С 3 20 км {снег} ясно -17.7 -20.0 82 -25 -25 1013.6 1008.2
03 22.02 С 2 20 км ясно -19.8 -22.9 76 -26 -26 1017.9 1012.5 -19.8 0.4 75
06 22.02 С 2 20 км ясно -20.0 -24.8 65 -26 -25 1021.0 1015.6 -20.5
09 22.02 С 2 20 км ясно -15.5 -22.8 54 -21 -19 1023.2 1017.9
12 22.02 С 1 20 км ясно -13.7 -21.6 51 -16 -16 1024.3 1018.9
15 22.02 Ю 1 20 км ясно -28.3 -31.1 77 -32 -32 опасность
обморожения
1025.7 1020.0 -13.6
18 22.02 Ю 1 20 км ясно -32.8 -36.4 70 -37 -37 опасность
обморожения
1025.6 1019.8
21 22.02 ЮВ 1 20 км ясно -34.1 -38.2 66 -39 -39 опасность
обморожения
1024.5 1018.6
00 23.02 Ю 2 20 км ясно -30.5 -33.8 73 -38 -38 опасность
обморожения
1021.9 1016.2
03 23.02 Ю 2 20 км 10/0
[Ci fib]
-26.3 -29.0 78 -33 -33 опасность
обморожения
1018.9 1013.3 -34.3 75
06 23.02 Ю 3 20 км 10/0
[Ac lent]
-18.5 -21.0 81 -26 -26 1015.0 1009.6
09 23.02 Ю 3 20 км 10/0
[Ac lent]
-12.1 -15.2 78 -18 -18 1011.3 1006.0
12 23.02 ЮЗ 3 20 км слаб. снег 10/0
[As op]
-9.3 -13.1 74 -15 -15 1009.4 1004.2
15 23.02 ЮЗ 2 10 км слаб. снег 10/0
[As op]
-10.8 -12.4 88 -15 -15 1008.3 1003.1 -9.3 0.6
18 23.02 Ю 2 4000 м слаб. снег 10/8 450 м
[Sc As op]
-10.3 -12.0 87 -15 -15 1007.0 1001.8
21 23.02 ЮЗ 2 20 км слаб. снег 10/8 400 м
[Sc As op]
-9.3 -10.4 92 -14 -14 1005.4 1000.3
00 24.02 Ю 2 20 км слаб. снег 10/10 300 м
[Frnb]
-8.4 -9.4 92 -13 -13 1004.1 999.0

 

Местоположение метеостанции Ижма (Коми, Россия): широта 65.00 долгота 53.92 высота над уровнем моря 40 м.

В архиве по умолчанию представлена погода в Ижме за последнюю неделю. Архивные данные за месяц целиком и за предыдущие месяцы, начиная с января 2011 года, Вы можете получить, выбрав интересующий диапазон дат из раскрывающегося списка и нажав кнопку "Ввод!".


*Определитесь, кто Вы:
робот инопланетянин человек

Внимание! Время в таблицах - всемирное. Для получения местного времени необходимо прибавить поправку, которая равна 3 ч.

Смотрите также архив погоды в соседних городах и на ближайших метеорологических станциях:

Погода в Ираеле (Коми, Россия) (88 км)
Погода в Кедва-Воме (Коми, Россия) (88 км)
Погода в Усть-Цильме (Коми, Россия) (91 км)
Погода в Мутном Материке (Коми, Россия) (120 км)
Погода в Печоре (Коми, Россия) (150 км)
Погода в Окуневом Носу (Коми, Россия) (152 км)
Погода в Ухте (Коми, Россия) (161 км)
Погода в Усть-Усе (Коми, Россия) (175 км)
Погода в Усть-Щугоре (Коми, Россия) (194 км)
Погода в Усинске (Коми, Россия) (196 км)

Пояснения к столбцам:

Ветер - указаны скорость ветра в м/с - средняя за 10 мин, порывы в срок и между сроками (в фигурных скобках) и направление, откуда дует ветер: С - северный, СВ - северо-восточный, В - восточный, ЮВ - юго-восточный, Ю - южный, ЮЗ - юго-западный, З - западный, СЗ - северо-западный.
Видимость - горизонтальная дальность видимости в метрах или километрах. При видимости от 1 до 10 км при отсутствии осадков обычно наблюдается дымка, при ухудшении видимости до 1 км и менее - туман. В сухую погоду видимость может ухудшаться дымом, пылью или мглою.
Явления - указаны атмосферные явления, наблюдавшиеся в срок или в последний час перед сроком; фигурными скобками обозначены явления, наблюдавшиеся между сроками (за 1-3 часа до срока); квадратными скобками обозначены град или гололедные отложения с указанием их диаметра в мм.
Облачность - указаны через наклонную черту общая и нижняя облачность в баллах и высота нижней границы облаков в метрах; квадратными скобками обозначены формы облаков: Ci - перистые, Cs - перисто-слоистые, Cc - перисто-кучевые, Ac - высококучевые, As - высокослоистые, Sc - слоисто-кучевые, Ns - слоисто-дождевые, Cu - кучевые, Cb - кучево-дождевые. Подробнее классификацию облаков см. в Атласе облаков (PDF).
T - Температура воздуха - температура, измеренная на высоте 2 м над землей.
Td - Температура точки росы - температура, при понижении до которой содержащийся в воздухе водяной пар достигнет насыщения.
f - Относительная влажность воздуха - влажноcть воздуха, измеренная на высоте 2 м над землей.
Te - Эффективная температура - температура, которую ощущает одетый по сезону человек в тени. Характеристика душности погоды. При расчете учитывается влияние влажности воздуха и скорости ветра на теплоощущения человека.
Tes - Эффективная температура на солнце - температура, которую ощущает человек, с поправкой на солнечный нагрев. Характеристика знойности погоды. Зависит от высоты солнца над горизонтом, облачности и скорости ветра. Ночью, в пасмурную погоду, а также при ветре 12 м/с и более поправка равна нулю.
P - Атмосферное давление - приведенное к уровню моря атмосферное давление.
Po - Атмосферное давление - измеренное на уровне метеостанции атмосферное давление.
Tmin - Минимальная температура - минимум температуры воздуха на высоте 2 м над землей.
Tmax - Максимальная температура - максимум температуры воздуха на высоте 2 м над землей.
R - Количество осадков - Количество выпавших осадков за период времени, мм. При наведении курсора мыши на число - период времени, за который выпало указанное количество осадков.
R24 - Количество осадков - Количество выпавших осадков за 24 часа, мм.
S - Снежный покров - Высота снежного покрова, см. При наведении курсора мыши на число - состояние снежного покрова и степень покрытия местности в баллах.